Satellite: MET-3/5
Catalog number: 21655
Epoch time:      08205.96228591
Element set:    0477
Inclination:      082.5538 deg
RA of node:       078.4059 deg
Eccentricity:    0.0012411
Arg of perigee:   285.3382 deg
Mean anomaly:     074.6368 deg
Mean motion:   13.17016457 rev/day
Decay rate:        5.1e-07 rev/day^2
Epoch rev:           81442
Checksum:              311

Satellite: MET-2/21
Catalog number: 22782
Epoch time:      08205.65577829
Element set:    0205
Inclination:      082.5457 deg
RA of node:       082.6502 deg
Eccentricity:    0.0022151
Arg of perigee:   184.1476 deg
Mean anomaly:     175.9507 deg
Mean motion:   13.83630891 rev/day
Decay rate:        5.4e-07 rev/day^2
Epoch rev:           75217
Checksum:              311

Satellite: OKEAN-4
Catalog number: 23317
Epoch time:      08206.51368844
Element set:     648
Inclination:      082.5396 deg
RA of node:       280.2414 deg
Eccentricity:    0.0022513
Arg of perigee:   009.0475 deg
Mean anomaly:     351.1167 deg
Mean motion:   14.82624926 rev/day
Decay rate:       1.75e-06 rev/day^2
Epoch rev:           74381
Checksum:              299

Satellite: NOAA-14
Catalog number: 23455
Epoch time:      08206.20859410
Element set:     235
Inclination:      098.9446 deg
RA of node:       278.4709 deg
Eccentricity:    0.0009943
Arg of perigee:   045.0506 deg
Mean anomaly:     315.1501 deg
Mean motion:   14.13744154 rev/day
Decay rate:      -2.11e-06 rev/day^2
Epoch rev:           69958
Checksum:              303

Satellite: SICH-1
Catalog number: 23657
Epoch time:      08205.82026030
Element set:    0448
Inclination:      082.5259 deg
RA of node:       061.8789 deg
Eccentricity:    0.0024361
Arg of perigee:   003.8886 deg
Mean anomaly:     356.2508 deg
Mean motion:   14.81593134 rev/day
Decay rate:        9.7e-07 rev/day^2
Epoch rev:           69564
Checksum:              320

Satellite: NOAA-15
Catalog number: 25338
Epoch time:      08206.15772828
Element set:     554
Inclination:      098.5558 deg
RA of node:       197.0787 deg
Eccentricity:    0.0009715
Arg of perigee:   297.8636 deg
Mean anomaly:     062.1604 deg
Mean motion:   14.24716242 rev/day
Decay rate:        9.5e-07 rev/day^2
Epoch rev:           53006
Checksum:              330

Satellite: RESURS
Catalog number: 25394
Epoch time:      08205.92347138
Element set:    0997
Inclination:      098.3826 deg
RA of node:       248.2040 deg
Eccentricity:    0.0002424
Arg of perigee:   083.1776 deg
Mean anomaly:     276.9680 deg
Mean motion:   14.24165586 rev/day
Decay rate:        1.7e-07 rev/day^2
Epoch rev:           52167
Checksum:              319

Satellite: FENGYUN1
Catalog number: 25730
Epoch time:      08206.51495649
Element set:     527
Inclination:      098.7218 deg
RA of node:       181.0342 deg
Eccentricity:    0.0022652
Arg of perigee:   064.3824 deg
Mean anomaly:     295.9679 deg
Mean motion:   14.07730144 rev/day
Decay rate:       2.51e-06 rev/day^2
Epoch rev:           47421
Checksum:              302

Satellite: OKEAN-0
Catalog number: 25860
Epoch time:      08206.53251836
Element set:     426
Inclination:      097.7515 deg
RA of node:       195.4302 deg
Eccentricity:    0.0001495
Arg of perigee:   098.5211 deg
Mean anomaly:     261.6170 deg
Mean motion:   14.73529499 rev/day
Decay rate:       -9.0e-08 rev/day^2
Epoch rev:           48489
Checksum:              316

Satellite: NOAA-16
Catalog number: 26536
Epoch time:      08206.18368191
Element set:      24
Inclination:      099.1572 deg
RA of node:       196.1728 deg
Eccentricity:    0.0011337
Arg of perigee:   119.0850 deg
Mean anomaly:     241.1517 deg
Mean motion:   14.12490273 rev/day
Decay rate:        6.9e-07 rev/day^2
Epoch rev:           40399
Checksum:              299

Satellite: NOAA-17
Catalog number: 27453
Epoch time:      08206.22274123
Element set:      19
Inclination:      098.5316 deg
RA of node:       269.7738 deg
Eccentricity:    0.0011764
Arg of perigee:   005.8331 deg
Mean anomaly:     354.3022 deg
Mean motion:   14.23990363 rev/day
Decay rate:       1.62e-06 rev/day^2
Epoch rev:           31607
Checksum:              286

Satellite: NOAA-18
Catalog number: 28654
Epoch time:      08206.20564711
Element set:     515
Inclination:      098.8686 deg
RA of node:       146.6831 deg
Eccentricity:    0.0013625
Arg of perigee:   206.1591 deg
Mean anomaly:     153.8900 deg
Mean motion:   14.11177879 rev/day
Decay rate:      -1.63e-06 rev/day^2
Epoch rev:           16369
Checksum:              320

/EX
SB KEPS @ AMSAT  $ORB08206.M
Orbital Elements  08206.MISC

HR AMSAT ORBITAL ELEMENTS FOR MANNED AND MISCELLANEOUS SATELLITES
FROM WA5QGD FORT WORTH,TX July 24, 2008
Send Subscribe/unsubscribe to KEPS at 
http://www.amsat.org/mailman/listinfo/keps
BID: ORB08206.M
TO ALL RADIO AMATEURS BT

Satellite: HUBBLE
Catalog number: 20580
Epoch time:      08205.92892412
Element set:    0191
Inclination:      028.4676 deg
RA of node:       083.5819 deg
Eccentricity:    0.0003472
Arg of perigee:   056.2097 deg
Mean anomaly:     303.8826 deg
Mean motion:   15.00394029 rev/day
Decay rate:       2.54e-06 rev/day^2
Epoch rev:           80050
Checksum:              286

